Location: Amerdingen
(48.7256°N, 10.4848°E)
Time: 22:55:50
(UTC+00:00)

Daily predictions for brighter satellites

Satellite Brightness Start Highest point End
(mag) Time Altitude Azimuth Time Altitude Azimuth Time Altitude Azimuth
Thor Agena Rocket 3.8 15:48:37 10° SE 15:53:35 47° ENE 15:58:31 10° N
BlueWalker 3 2.0 15:52:27 10° WNW 15:56:05 74° SSW 15:59:42 10° SE
Cosmos 1356 Rocket 3.3 15:54:13 10° S 15:58:15 82° ESE 16:02:22 10° NNE
Meteor 1-28 Rocket 3.4 15:56:50 10° NNE 16:00:03 41° E 16:03:13 10° S
Cosmos 2026 Rocket 4.4 15:55:11 10° NNW 16:01:24 73° W 16:07:41 10° S
Cosmos 1544 Rocket 4.0 15:59:03 10° SSE 16:03:12 43° E 16:07:24 10° NNE
Cosmos 1484 Rocket 2.4 16:00:25 10° SSE 16:03:55 79° ENE 16:07:27 10° N
Cosmos 1697 Rocket 4.0 16:00:43 10° SE 16:04:38 20° E 16:08:34 10° NE
NOSS 2-2 (E) 3.4 16:01:53 10° SSW 16:05:08 42° SE 16:08:02 10° NE
BREEZE M DEB (TANK) 4.1 15:49:17 10° WNW 16:06:54 82° SSW 16:11:13 10° ESE
Intercosmos 24 3.6 16:05:18 10° N 16:09:14 65° ENE 16:12:44 10° SSE
Cosmos 1634 Rocket 4.0 16:03:05 10° S 16:09:16 85° E 16:15:28 10° N
Cosmos 405 Rocket 2.2 16:06:09 10° N 16:09:26 79° E 16:12:38 10° SSE
Okean 1-7 Rocket 4.4 16:07:48 10° N 16:11:37 28° ENE 16:15:22 10° SE
Lacrosse 5 rocket 1.8 16:09:19 10° W 16:12:55 44° NNW 16:16:22 11° NE
Cosmos 1461 3.9 16:14:07 10° S 16:17:21 25° ESE 16:20:09 12° ENE
CENTAUR R/B 3.1 16:11:55 10° WSW 16:17:36 55° NW 16:24:49 10° NE
Meteor 1-20 Rocket 4.4 16:15:27 10° N 16:20:44 48° ENE 16:26:00 10° SSE
Cosmos 1455 Rocket 4.5 16:17:36 10° SW 16:21:39 38° WNW 16:25:46 10° N
Cosmos 1602 Rocket 3.7 16:19:08 10° N 16:23:26 50° ENE 16:27:39 10° SSE
Cosmos 2279 Rocket 4.0 16:17:40 10° S 16:23:51 77° E 16:30:07 10° NNE
Cosmos 1570 Rocket 4.5 16:21:36 10° NNW 16:26:55 68° WSW 16:32:10 10° S
IRIDIUM 103 4.5 16:23:33 10° N 16:28:40 52° E 16:33:45 10° SSE
SMAP 3.0 16:25:32 10° SSE 16:30:10 74° ENE 16:34:50 10° N
Cosmos 1656 3.7 16:26:05 10° SSW 16:31:42 83° ESE 16:37:25 10° NNE
UNK 3.7 16:28:22 10° NNE 16:32:57 65° ESE 16:37:28 10° S
YAOGAN 1 3.8 16:31:03 10° ESE 16:34:12 20° ENE 16:37:20 10° NNE
Cosmos 2228 3.8 16:31:05 10° SSW 16:35:13 51° WNW 16:39:23 10° N
Landsat 7 3.7 16:31:03 10° SSE 16:35:39 65° ENE 16:40:17 10° N
NOSS 2-2 (C) 3.9 16:32:44 10° WSW 16:35:41 34° NW 16:38:06 13° NNE
SAR-Lupe-4 3.6 16:32:29 10° SSE 16:35:58 56° ENE 16:39:28 10° N
Cosmos 1867 3.7 16:31:08 10° NNW 16:36:31 57° NE 16:41:52 10° SE
Cosmos 1486 Rocket 4.0 16:31:34 10° SSW 16:36:44 71° ESE 16:41:58 10° NNE
Cosmos 2297 Rocket 2.2 16:34:48 10° NNW 16:40:31 88° WSW 16:46:11 10° SSE
USA 290 2.2 16:37:15 10° NNW 16:40:32 89° ENE 16:43:47 10° SSE
USA 215 3.8 16:35:28 14° ENE 16:40:39 43° N 16:46:46 10° WNW
Cosmos 2180 Rocket 4.4 16:35:18 10° S 16:41:23 74° E 16:47:32 10° NNE
Cosmos 773 Rocket 4.4 16:38:34 10° NNW 16:43:45 67° WSW 16:48:56 10° S
SAR-Lupe-1 4.0 16:41:28 10° SSE 16:45:01 63° ENE 16:48:37 10° N
Cosmos 1782 2.9 16:42:01 10° SSW 16:45:36 66° W 16:49:11 10° N
Cosmos 1953 Rocket 4.4 16:42:23 10° N 16:46:14 28° ENE 16:50:04 10° SE
IRIDIUM 106 4.2 16:41:48 10° N 16:47:03 74° E 16:52:15 10° S
ATLAS CENTAUR R/B 2.1 16:44:24 10° NW 16:47:28 41° WSW 16:50:27 10° SSE
CZ-4C R/B 2.9 16:41:41 10° NW 16:48:33 81° NE 16:57:10 10° SE
Cosmos 1607 4.0 16:43:33 10° NW 16:49:48 83° SW 16:56:06 10° SSE
Cosmos 1733 4.3 16:48:50 10° NW 16:50:02 18° W 16:51:13 10° SW
CZ-2D R/B 2.6 16:48:24 10° SSE 16:51:31 84° E 16:54:42 10° NNW
IRS-P3 4.0 16:49:12 10° SSE 16:54:28 69° ENE 16:59:46 10° N
Lacrosse 4 Rocket 3.6 16:52:47 10° W 16:55:39 18° NW 16:58:29 10° N
Meteor 1-25 Rocket 4.2 16:50:17 10° N 16:56:08 71° ENE 17:01:53 10° SSE
ARIANE 5 R/B 2.6 16:51:10 10° SSE 16:56:14 84° WSW 17:01:24 10° NNW
Cosmos 990 Rocket 4.3 16:51:54 10° S 16:56:41 42° ESE 16:59:48 20° NE
Cosmos 2219 4.0 16:52:09 10° NNW 16:57:10 30° NE 16:59:37 22° E
Cosmos 1825 Rocket 3.5 16:52:55 10° N 16:57:13 55° ENE 17:01:27 10° SSE
NOSS 2-3 (E) 4.3 16:55:54 10° S 16:58:55 24° ESE 16:59:21 24° ESE
Cosmos 2266 Rocket 3.9 16:53:26 10° N 16:59:39 88° E 17:05:42 10° S
NOSS 2-3 (D) 4.4 16:57:54 10° S 17:00:56 24° ESE 17:01:12 24° ESE
Cosmos 2098 Rocket 3.6 16:58:01 10° SSW 17:02:01 60° WNW 17:06:48 10° N
Meteor 1-5 Rocket 4.2 16:58:23 10° N 17:03:37 54° ENE 17:08:56 10° SSE
Cosmos 2151 3.3 17:00:41 10° NNW 17:04:48 64° W 17:08:55 10° S
Cosmos 1743 3.7 17:02:21 10° NNW 17:05:26 39° W 17:08:28 10° SSW
SPOT 1/Viking Rocket 3.5 17:01:05 10° SSE 17:06:11 60° ENE 17:11:19 10° N
Cosmos 1980 Rocket 3.1 17:02:12 10° SSE 17:06:55 28° ESE 17:08:00 26° E
Cosmos 1844 Rocket 4.3 17:07:54 10° N 17:10:59 16° NNE 17:10:59 16° NNE
SL-16 R/B 3.7 17:09:45 10° N 17:15:30 40° WNW 17:21:13 10° SW
Cosmos 2058 Rocket 4.1 17:11:50 10° SSE 17:14:42 27° ESE 17:14:42 27° ESE
Cosmos 2263 Rocket 2.3 17:13:21 10° NNW 17:18:54 53° NE 17:23:09 17° SE
NOSS 3-2 (C) 3.1 17:14:26 10° SW 17:19:31 87° NW 17:23:02 26° NE
NOSS 3-2 (A) 4.0 17:14:54 10° WSW 17:19:55 45° NW 17:24:05 19° NNE
CZ-4 R/B 4.2 17:19:08 10° SSE 17:23:05 87° ENE 17:27:03 10° NNW
GEOS 3 Rocket 4.3 17:19:36 19° NNE 17:23:18 53° NW 17:28:31 10° WSW
MOS 1 Rocket 3.8 17:18:41 10° S 17:23:31 67° W 17:28:40 10° NNW
BREEZE M DEB (TANK) 2.9 17:23:48 10° WSW 17:25:20 36° SW 17:25:20 36° SW
Cosmos 1076 Rocket 3.3 17:22:16 10° N 17:26:35 72° E 17:30:53 10° SSE
Cosmos 1933 3.5 17:24:21 10° SSW 17:28:09 67° W 17:30:45 19° N
Cosmos 2084 Rocket 4.3 17:27:30 10° NW 17:31:35 48° SW 17:35:37 10° SSE
Cosmos 1606 Rocket 3.7 17:27:14 10° SSW 17:31:37 73° W 17:35:23 14° N
Cosmos 2227 Rocket 2.2 17:26:01 10° NNW 17:31:41 80° WSW 17:37:19 10° SSE
Cosmos 1538 Rocket 3.9 17:27:24 10° NNW 17:32:39 63° ENE 17:36:28 19° SE
PSLV R/B 3.2 17:36:04 66° E 17:36:10 66° ENE 17:40:12 10° N
CZ-2D R/B 3.4 17:32:44 10° SSE 17:36:57 87° WSW 17:41:08 10° NNW
COSMO-SKYMED 1 2.5 17:39:14 56° SE 17:39:14 56° SE 17:42:52 10° S
Meteor 2-2 Rocket 4.4 17:34:57 10° SSE 17:40:19 46° E 17:40:35 46° E
SL-19 R/B 4.1 17:35:16 10° SSE 17:40:36 76° ENE 17:46:15 10° NNW
Resurs 1-3 3.4 17:36:40 10° SSE 17:40:58 82° ENE 17:45:17 10° NNW
Cosmos 1244 Rocket 4.4 17:35:40 10° N 17:41:54 59° ENE 17:48:01 10° SSE
BREEZE-M DEB (TANK) 3.9 17:40:23 10° W 17:44:04 87° SSW 17:48:33 32° ESE
Meteor 2-20 4.3 17:41:04 10° S 17:47:15 84° E 17:53:25 10° N
Cosmos 1697 Rocket 2.8 17:42:21 10° SW 17:47:57 74° WNW 17:50:44 31° NNE
Lacrosse 5 rocket 2.9 17:47:38 10° WNW 17:49:58 21° NNW 17:49:58 21° NNW
Cosmos 1354 Rocket 4.4 17:45:28 10° SW 17:50:41 62° WNW 17:53:34 26° N
BREEZE-M DEB (TANK) 4.2 17:49:28 10° WNW 17:53:21 69° NNE 17:57:03 38° E
Cosmos 1461 3.6 17:50:13 10° WSW 17:53:56 41° NW 17:54:18 40° NNW
Spot 4 Rocket 4.2 17:49:38 10° S 17:54:43 73° WSW 17:59:52 10° NNW
IRAS Rocket 4.1 17:50:23 10° SSE 17:55:52 85° WSW 18:01:24 10° NNW
Cosmos 1726 Rocket 4.3 17:52:22 10° SSW 17:56:56 56° WNW 17:59:49 22° N
SL-08 R/B 4.4 17:53:53 10° N 18:00:12 68° ENE 18:06:30 10° SSE
Cosmos 1655 Rocket 4.4 17:54:43 10° NNW 18:00:53 62° W 18:06:58 10° S
SKYMED 2 4.1 17:59:35 33° N 18:01:15 56° WNW 18:05:30 10° SSW
Gbstr 26 Del rocket 3.6 17:59:46 10° WSW 18:02:38 46° SW 18:02:38 46° SW
Cosmos 1898 Rocket 4.2 17:59:53 10° S 18:03:17 39° SSE 18:03:17 39° SSE
Meteor 2-10 4.2 18:02:52 10° NNW 18:08:12 74° W 18:13:42 10° S
Meteor 2-20 Rocket 4.3 18:03:06 10° S 18:09:22 88° ESE 18:12:30 31° N
YAOGAN 1 3.4 18:05:36 10° S 18:09:44 49° W 18:13:53 10° NNW
CENTAUR R/B 4.1 18:04:20 10° WNW 18:09:55 28° N 18:12:28 23° NNE
USA 281 4.4 18:17:15 25° NNE 18:17:15 25° NNE 18:20:40 10° NNW
Cosmos 2082 3.7 18:12:01 10° NNW 18:17:03 67° N 18:17:03 67° N
Meteor 1-26 Rocket 4.0 18:12:58 10° S 18:18:03 79° SSW 18:18:03 79° SSW
USA 238 DEB 3.3 18:13:30 10° SW 18:19:37 81° SE 18:19:57 78° E
USA 238 3.3 18:13:36 10° SW 18:19:43 80° SE 18:20:02 78° E
USA 215 3.3 18:22:49 58° NNE 18:23:04 59° NNE 18:29:29 10° NW
Cosmos 372 Rocket 4.4 18:22:23 10° SSW 18:26:26 55° SW 18:26:26 55° SW
Aureole 1 Rocket 4.1 18:24:16 10° SSW 18:27:16 45° SW 18:27:16 45° SW
Cosmos 2219 3.6 18:36:02 10° NW 18:41:35 60° WSW 18:41:35 60° WSW
Cosmos 1980 Rocket 2.9 18:45:02 10° SW 18:49:48 51° W 18:49:48 51° W
Cosmos 2263 Rocket 3.9 18:57:42 10° NW 19:02:32 29° WSW 19:04:58 21° SW
